Location: Oberkirch
(48.5323°N, 8.0787°E)
Time: 00:50:20
(UTC+00:00)

Transit 4A - All Passes

Search period start: 07 February 2026 00:00
Search period end: 17 February 2026 00:00
Orbit: 866 x 976 km, 66.8° (Epoch: 6 February)

Date Brightness Start Highest point End Pass type
(mag) Time Alt. Az. Time Alt. Az. Time Alt. Az.
7 Feb - 04:11:32 10° SE 04:14:40 15° ESE 04:17:51 10° ENE visible
7 Feb - 05:54:09 10° SSW 05:59:59 81° ESE 06:06:01 10° NE visible
7 Feb - 07:41:58 10° W 07:47:00 28° NW 07:52:09 10° NNE daylight
7 Feb - 09:32:22 10° NW 09:35:30 14° N 09:38:41 10° NNE daylight
7 Feb - 11:20:34 10° NNW 11:24:30 17° NNE 11:28:28 10° ENE daylight
7 Feb - 13:06:38 10° NNW 13:12:30 43° NE 13:18:28 10° ESE daylight
7 Feb - 14:53:01 10° NW 14:58:56 48° WSW 15:04:58 10° S daylight
8 Feb - 04:18:45 10° SSE 04:23:05 22° ESE 04:27:31 10° ENE visible
8 Feb - 06:02:54 10° SW 06:08:45 75° NW 06:14:48 10° NNE visible
8 Feb - 07:51:28 10° W 07:56:06 23° NNW 08:00:51 10° NNE daylight
8 Feb - 09:41:52 10° NNW 09:44:51 14° N 09:47:52 10° NNE daylight
8 Feb - 11:29:20 10° NNW 11:33:44 20° NNE 11:38:12 10° ENE daylight
8 Feb - 13:15:20 10° NNW 13:21:25 56° NE 13:27:38 10° SE daylight
8 Feb - 15:02:01 10° NW 15:07:33 34° WSW 15:13:09 10° S daylight
9 Feb - 04:26:32 10° S 04:31:35 31° ESE 04:36:45 10° NE visible
9 Feb - 06:11:50 10° SW 06:17:36 56° NW 06:23:33 10° NNE visible
9 Feb - 08:01:05 10° WNW 08:05:18 19° NNW 08:09:37 10° NNE daylight
9 Feb - 09:51:11 10° NNW 09:54:11 14° N 09:57:14 10° NNE daylight
9 Feb - 11:38:03 10° NNW 11:42:55 24° NNE 11:47:52 10° E daylight
9 Feb - 13:24:03 10° NNW 13:30:16 74° NE 13:36:37 10° SE daylight
9 Feb - 15:11:11 10° NW 15:16:04 25° WSW 15:21:01 10° SSW daylight
10 Feb - 04:34:38 10° S 04:40:08 45° ESE 04:45:48 10° NE visible
10 Feb - 06:20:57 10° WSW 06:26:31 42° NW 06:32:16 10° NNE daylight
10 Feb - 08:10:45 10° WNW 08:14:32 17° NNW 08:18:24 10° NNE daylight
10 Feb - 10:00:18 10° NNW 10:03:32 14° N 10:06:49 10° NE daylight
10 Feb - 11:46:44 10° NNW 11:52:02 29° NE 11:57:25 10° E daylight
10 Feb - 13:32:49 10° NW 13:39:04 83° SW 13:45:25 10° SSE daylight
10 Feb - 15:20:41 10° WNW 15:24:32 17° WSW 15:28:25 10° SW daylight
11 Feb - 03:02:27 10° ESE 03:03:43 11° E 03:04:58 10° E visible
11 Feb - 04:43:01 10° SSW 04:48:46 63° ESE 04:54:42 10° NE visible
11 Feb - 06:30:13 10° WSW 06:35:31 33° NW 06:40:58 10° NNE daylight
11 Feb - 08:20:26 10° NW 08:23:50 15° NNW 08:27:17 10° NNE daylight
11 Feb - 10:09:14 10° NNW 10:12:50 16° NNE 10:16:31 10° NE daylight
11 Feb - 11:55:25 10° NNW 12:01:05 36° NE 12:06:50 10° ESE daylight
11 Feb - 13:41:39 10° NW 13:47:47 61° WSW 13:54:00 10° SSE daylight
11 Feb - 15:31:07 10° W 15:32:55 11° W 15:34:44 10° WSW daylight
12 Feb - 03:08:33 10° SE 03:12:05 17° ESE 03:15:39 10° ENE visible
12 Feb - 04:51:37 10° SSW 04:57:29 87° ESE 05:03:33 10° NE visible
12 Feb - 06:39:37 10° W 06:44:35 27° NNW 06:49:40 10° NNE daylight
12 Feb - 08:30:02 10° NW 08:33:09 14° N 08:36:18 10° NNE daylight
12 Feb - 10:18:04 10° NNW 10:22:07 18° NNE 10:26:15 10° ENE daylight
12 Feb - 12:04:07 10° NNW 12:10:04 46° NE 12:16:07 10° ESE daylight
12 Feb - 13:50:34 10° NW 13:56:25 44° WSW 14:02:23 10° S daylight
13 Feb - 03:15:57 10° SSE 03:20:31 24° ESE 03:25:11 10° NE visible
13 Feb - 05:00:25 10° SW 05:06:16 70° NW 05:12:19 10° NNE visible
13 Feb - 06:49:09 10° WNW 06:53:43 22° NNW 06:58:23 10° NNE daylight
13 Feb - 08:39:30 10° NNW 08:42:30 14° N 08:45:31 10° NNE daylight
13 Feb - 10:26:48 10° NNW 10:31:21 21° NNE 10:35:58 10° ENE daylight
13 Feb - 12:12:48 10° NNW 12:18:58 60° NE 12:25:14 10° SE daylight
13 Feb - 13:59:36 10° NW 14:05:00 32° WSW 14:10:29 10° S daylight
14 Feb - 03:23:50 10° S 03:29:01 34° ESE 03:34:21 10° NE visible
14 Feb - 05:09:23 10° SW 05:15:08 52° NW 05:21:03 10° NNE visible
14 Feb - 06:58:47 10° WNW 07:02:55 19° NNW 07:07:08 10° NNE daylight
14 Feb - 08:48:46 10° NNW 08:51:51 14° N 08:54:57 10° NE daylight
14 Feb - 10:35:31 10° NNW 10:40:31 25° NNE 10:45:36 10° E daylight
14 Feb - 12:21:33 10° NW 12:27:48 80° NE 12:34:10 10° SE daylight
14 Feb - 14:08:49 10° WNW 14:13:31 23° WSW 14:18:15 10° SSW daylight
15 Feb - 03:32:00 10° S 03:37:36 49° ESE 03:43:22 10° NE visible
15 Feb - 05:18:33 10° WSW 05:24:04 40° NW 05:29:46 10° NNE visible
15 Feb - 07:08:27 10° NW 07:12:10 16° NNW 07:15:56 10° NNE daylight
15 Feb - 08:57:50 10° NNW 09:01:11 15° N 09:04:34 10° NE daylight
15 Feb - 10:44:12 10° NNW 10:49:37 30° NE 10:55:07 10° E daylight
15 Feb - 12:30:20 10° NW 12:36:34 78° WSW 12:42:55 10° SSE daylight
15 Feb - 14:18:27 10° WNW 14:21:57 16° WSW 14:25:30 10° SW daylight
16 Feb - 01:58:58 10° ESE 02:01:07 12° E 02:03:16 10° ENE visible
16 Feb - 03:40:27 10° SSW 03:46:15 69° ESE 03:52:15 10° NE visible
16 Feb - 05:27:51 10° W 05:33:04 31° NW 05:38:28 10° NNE visible
16 Feb - 07:18:08 10° NW 07:21:28 15° NNW 07:24:52 10° NNE daylight
16 Feb - 09:06:44 10° NNW 09:10:29 16° NNE 09:14:16 10° NE daylight
16 Feb - 10:52:54 10° NNW 10:58:39 38° NE 11:04:30 10° ESE daylight
16 Feb - 12:39:11 10° NW 12:45:16 57° WSW 12:51:27 10° SSE daylight
16 Feb - 14:30:00 10° W 14:30:20 10° W 14:30:39 10° WSW daylight
